Weather in Bishkul

Kazakhstan     54°46′22″N   69°06′08″E
temp.,
°C
wind,
m/s
gust,
m/s
humid.,
%
clouds,
%
prec.,
mm/h
press.,
hPa
HPBL,
m
18 may, tue
tue1800:00+22w412381 0.0 1013187
03:00+19wnw484352 0.1 1012125
06:00+18wnw356077 0.1 101273
09:00+22wnw465299 0.0 1013415
12:00+24nw7843100 0.0 10121455
15:00+27wnw593498 0.0 10112786
18:00+20nne11136299 0.3 1011817
21:00+17n5107680 1.9 1012395
19 may, wed
wed1900:00+13nne7118494 1.9 1014570
03:00+11nne61186100 0.0 1016579
06:00+10nne6128677 0.0 1017516
09:00+14nne79605 0.0 10181177
12:00+17nne78423 0.0 10191825
15:00+18nne78365 0.0 10201972
18:00+18nne78355 0.0 10202007
21:00+14nne36515 0.0 1021107
20 may, thu
thu2000:00+11n31157100 0.0 1022245
03:00+9ne376395 0.0 1023161
06:00+8nne36655 0.0 1024118
09:00+12nne35465 0.0 1026650
12:00+15n343890 0.0 10251304
15:00+18nnw34345 0.0 10241640
18:00+20nw35325 0.0 10231774
21:00+17w224626 0.0 102212
21 may, fri
fri2100:00+14wsw485029 0.0 1022114
03:00+14w4125826 0.0 1021204
06:00+14wnw4126125 0.0 1022252
09:00+20nw59465 0.0 1022485
12:00+25nw67342 0.0 10221208
15:00+27nw55315 0.0 10212389
18:00+28nw44304 0.0 10212734
21:00+23wnw33463 0.0 102239
22 may, sat
sat2200:00+19wnw46490 0.0 102272
03:00+17nw22490 0.0 102316
06:00+16wnw22530 0.0 102411
09:00+23w23400 0.0 1024314
12:00+27w35280 0.0 10232087
15:00+29w55245 0.0 10222879
18:00+29wsw56255 0.0 10223024
21:00+23wsw33414 0.0 102138